STARLINK-11300, 61243

Orbit data source: Space-Track

STARLINK-11300, 61243 is a payload satellite owned by SpaceX/Seattle (US) in LEO that was launched on Wed, 25 Sep 2024 UTC via an FALCON 9 launch vehicle from the Air Force Western Test Range (AFWTR). Payload-class satellites include a variety of spacecraft equipped with specific instruments for various scientific and technological missions. These include communications satellites like Starlink; space stations such as the ISS; scientific satellites like the Hubble; Earth observation satellites from companies like Planet Labs, Umbra, and HawkEye 360; GPS; miniature CubeSats for education and research; and military/defense satellites.

Loading next visibility...
Identifier
61243, 2024-175A
Orbit
LEO
Last TLE update
15 hours ago
Origin
Manufacturer
SpaceX/Seattle
Mission
Operational Commercial Communications
Bus & Motor
STARLINK V2M, Unknown motor
Mass
730 kg wet, ~700 kg dry
Launch date (UTC)
2024-09-25 (9 months ago)
Launch vehicle
FALCON 9
Launch site
Air Force Western Test Range (AFWTR)
Object type
Payload
Rocket body
Debris
Shape & HBR
Box + 2 Pan, 29 m
Radar Cross Section
36.964 m², Large (>1 m²)

Expand to show TLE details & history

TLE from 15 hours ago
0 STARLINK-11300
1 61243U 24175A   25181.79783880  .00001503  00000-0  17267-4 0  9998
2 61243  53.1595 218.0307 0001136  80.3378 279.7768 15.69700309 44854
Epoch: 2025-06-30T19:08Z
TLE epoch observation values (Epoch: 2025-06-30T19:08:53.272Z)
Latitude
-0.00003°
Longitude
11.70623°
Altitude
360.54 km
Speed
7.694 km/s
True Right ascension
14h 32m 07s
True Declination
0° 00' 00"
Sunlit
Object was in full shadow at epoch
Visualization orbit readout
Latitude
-45.16144°
Longitude
-122.808°
Altitude
375.747 km
Speed
7.684 km/s
Apparent Right ascension
07h 35m 48s
Apparent Declination
-46° 32' 31"
Sunlit
Object is in daylight
Visualization observer readout
Local Sidereal Time
21:34:00
Azimuth
116.993° SE
Elevation
-67.621°
Doppler factor
1
Orbital elements
Apogee altitude
360.781 km
Perigee altitude
359.25 km
Semi-major axis
6,738.152 km
Eccentricity
0.00011
Inclination
53.1595°
RAAN
218.0307°
Arg. of periapsis
80.3378°
True anomaly
Unknown
Mean anomaly
279.7768°
Eccentric anomaly
Unknown
Mean motion
3.92403 °/min
Orbital period
91.74 mins
BSTAR
0.000017267
Loading maneuver chart data...
Loading SW <> Apogee altitude chart data...
Loading historical data...
Loading historical data...
Loading historical data...
Loading historical data...
Loading historical data...
Loading historical data...
Loading historical data...

STARLINK-11300 Visibility forecast

Observer location: undefined°, undefined°

Span
Click to sort rows by Start time (UTC) header in descending order
Start Az.
Max El. time (UTC)
Max El. Az.
Max El.
End time (UTC)
End Az.
4 mins2025-07-02 04:57:38.975Z231.371° WSW2025-07-02 04:59:38.975Z21.317° NNE44.647°2025-07-02 05:01:38.975Z48.556° ENE
|